GW6774 Weather Reports


Display with metric or nautical units.
time (UTC)temp
F
wind
direction
speed
MPH
gust
MPH
rain 1hr
in
rain 24hr
in
rain mn
in
humidity
%
barometer
mb
20260504202041 77 134 1.0 4.0 0.00 0.00 0.00 32 1014.0
20260504201541 78 275 3.0 4.0 0.00 0.00 0.00 32 1014.0
20260504201041 78 217 1.0 4.0 0.00 0.00 0.00 32 1014.0
20260504200542 80 176 2.0 5.0 0.00 0.00 0.00 33 1014.2
20260504200042 78 79 1.0 5.0 0.00 0.00 0.00 31 1014.1
20260504195539 79 168 2.0 4.0 0.00 0.00 0.00 35 1014.2
20260504195040 78 90 1.0 5.0 0.00 0.00 0.00 37 1014.2
20260504194533 78 180 1.0 5.0 0.00 0.00 0.00 37 1014.3
20260504194032 78 144 2.0 4.0 0.00 0.00 0.00 37 1014.4
20260504193533 80 3 1.0 2.0 0.00 0.00 0.00 34 1014.4
20260504193031 81 180 0.0 5.0 0.00 0.00 0.00 36 1014.5
20260504192530 78 44 2.0 5.0 0.00 0.00 0.00 34 1014.5
20260504192028 80 61 1.0 3.0 0.00 0.00 0.00 31 1014.6
20260504191531 79 149 1.0 4.0 0.00 0.00 0.00 37 1014.5
20260504191029 78 94 2.0 4.0 0.00 0.00 0.00 34 1014.7
20260504190531 78 140 1.0 5.0 0.00 0.00 0.00 32 1014.7
20260504190319 79 271 2.0 5.0 0.00 0.00 0.00 39 1014.9
20260504185530 78 28 1.0 2.0 0.00 0.00 0.00 36 1014.9
20260504185030 77 178 1.0 2.0 0.00 0.00 0.00 33 1015.0
20260504184530 77 235 1.0 3.0 0.00 0.00 0.00 32 1015.0
20260504184029 78 172 1.0 5.0 0.00 0.00 0.00 33 1015.1
20260504183529 77 134 3.0 5.0 0.00 0.00 0.00 33 1015.2
20260504183030 78 128 2.0 4.0 0.00 0.00 0.00 34 1015.3
20260504182529 78 97 2.0 3.0 0.00 0.00 0.00 38 1015.4
20260504182031 78 316 1.0 4.0 0.00 0.00 0.00 33 1015.4
20260504181528 77 271 2.0 5.0 0.00 0.00 0.00 38 1015.5
20260504181025 76 79 2.0 5.0 0.00 0.00 0.00 34 1015.4
20260504180518 77 86 2.0 4.0 0.00 0.00 0.00 33 1015.4
20260504180014 76 117 1.0 4.0 0.00 0.00 0.00 35 1015.5
20260504175856 76 241 2.0 5.0 0.00 0.00 0.00 35 1015.8
20260504175850 76 39 2.0 5.0 0.00 0.00 0.00 40 1015.7
20260504174809 76 321 2.0 6.0 0.00 0.00 0.00 39 1015.7
20260504174012 77 151 3.0 6.0 0.00 0.00 0.00 34 1015.8
20260504173512 76 118 1.0 3.0 0.00 0.00 0.00 35 1015.7
20260504173012 76 169 1.0 4.0 0.00 0.00 0.00 40 1015.7
20260504172512 75 200 2.0 4.0 0.00 0.00 0.00 37 1016.0
20260504172011 75 204 2.0 4.0 0.00 0.00 0.00 35 1016.0
20260504171511 76 152 2.0 4.0 0.00 0.00 0.00 38 1016.1
20260504171012 76 209 1.0 4.0 0.00 0.00 0.00 42 1016.1
20260504170806 75 276 1.0 4.0 0.00 0.00 0.00 38 1016.2
20260504150950 70 61 1.0 3.0 0.00 0.00 0.00 42 1017.4
20260504150449 70 17 2.0 3.0 0.00 0.00 0.00 42 1017.4
20260504140933 67 250 0.0 4.0 0.00 0.00 0.00 53 1017.4
20260504140430 67 298 1.0 3.0 0.00 0.00 0.00 53 1017.4
20260504130420 58 196 0.0 2.0 0.00 0.00 0.00 72 1017.5
20260504110352 44 334 0.0 0.0 0.00 0.00 0.00 89 1017.0
20260504100329 44 334 0.0 0.0 0.00 0.00 0.00 86 1016.8
20260504081810 47 334 0.0 0.0 0.00 0.00 0.00 80 1016.9
20260504081311 48 334 0.0 0.0 0.00 0.00 0.00 79 1016.9
20260504080811 48 334 0.0 0.0 0.00 0.00 0.00 79 1016.9
20260504080310 49 334 0.0 0.0 0.00 0.00 0.00 77 1016.9
20260504070311 49 334 0.0 2.0 0.00 0.00 0.00 77 1017.0
20260504060120 51 334 0.0 0.0 0.00 0.00 0.00 70 1017.1
20260504050250 51 334 0.0 0.0 0.00 0.00 0.00 68 1017.6
20260504045747 51 334 0.0 0.0 0.00 0.00 0.00 70 1017.6
20260504045247 52 334 0.0 0.0 0.00 0.00 0.00 66 1017.6
20260504044747 52 334 0.0 0.0 0.00 0.00 0.00 66 1017.5
20260504044248 52 334 0.0 1.0 0.00 0.00 0.00 66 1017.5
20260504043745 52 334 0.0 1.0 0.00 0.00 0.00 68 1017.5
20260504043250 52 334 0.0 2.0 0.00 0.00 0.00 67 1017.6
20260504042745 52 334 0.0 2.0 0.00 0.00 0.00 64 1017.4
20260504042240 52 334 0.0 2.0 0.00 0.00 0.00 67 1017.5
20260504041736 52 334 0.0 2.0 0.00 0.00 0.00 66 1017.5
20260504041533 52 334 0.0 2.0 0.00 0.00 0.00 69 1017.5
20260504041027 52 334 0.0 0.0 0.00 0.00 0.00 69 1017.6
20260504040231 53 334 0.0 0.0 0.00 0.00 0.00 68 1017.4
20260504035731 53 334 0.0 0.0 0.00 0.00 0.00 65 1017.6
20260504035230 53 334 0.0 0.0 0.00 0.00 0.00 66 1017.5
20260504034729 53 334 0.0 2.0 0.00 0.00 0.00 66 1017.6
20260504034230 53 334 0.0 2.0 0.00 0.00 0.00 65 1017.6
20260504033729 53 334 0.0 0.0 0.00 0.00 0.00 64 1017.5
20260504033229 53 334 0.0 1.0 0.00 0.00 0.00 64 1017.4
20260504032729 53 334 0.0 1.0 0.00 0.00 0.00 65 1017.5
20260504032224 53 334 0.0 0.0 0.00 0.00 0.00 64 1017.4
20260504031725 53 334 0.0 0.0 0.00 0.00 0.00 66 1017.3
20260504031226 54 334 0.0 0.0 0.00 0.00 0.00 65 1017.4
20260504030726 55 334 0.0 0.0 0.00 0.00 0.00 62 1017.5
20260504030223 55 334 0.0 2.0 0.00 0.00 0.00 59 1017.5
20260504025719 56 334 0.0 2.0 0.00 0.00 0.00 59 1017.4
20260504025221 56 334 0.0 2.0 0.00 0.00 0.00 60 1017.5
20260504025019 56 334 0.0 2.0 0.00 0.00 0.00 60 1017.4
20260504024220 56 337 0.0 2.0 0.00 0.00 0.00 56 1017.2
20260504024018 56 337 0.0 2.0 0.00 0.00 0.00 57 1017.2
20260504023217 56 338 0.0 2.0 0.00 0.00 0.00 57 1017.1
20260504022715 56 344 0.0 2.0 0.00 0.00 0.00 55 1017.1
20260504022210 56 344 0.0 2.0 0.00 0.00 0.00 59 1017.0
20260504021712 57 344 0.0 2.0 0.00 0.00 0.00 55 1017.0
20260504021211 56 344 0.0 1.0 0.00 0.00 0.00 56 1016.9
20260504020750 56 344 0.0 1.0 0.00 0.00 0.00 58 1016.9
20260504015711 56 3 0.0 2.0 0.00 0.00 0.00 57 1016.6
20260504015500 57 3 0.0 2.0 0.00 0.00 0.00 57 1016.6
20260504014711 58 3 0.0 0.0 0.00 0.00 0.00 52 1016.5
20260504014210 58 3 0.0 0.0 0.00 0.00 0.00 56 1016.5
20260504013708 58 3 0.0 0.0 0.00 0.00 0.00 53 1016.5
20260504013204 58 3 0.0 2.0 0.00 0.00 0.00 53 1016.4
20260504012704 58 3 0.0 2.0 0.00 0.00 0.00 54 1016.4
20260504012203 58 3 0.0 2.0 0.00 0.00 0.00 54 1016.4
20260504011954 59 8 0.0 0.0 0.00 0.00 0.00 52 1016.3
20260504011452 59 8 0.0 0.0 0.00 0.00 0.00 52 1016.3
20260504010701 60 8 0.0 0.0 0.00 0.00 0.00 51 1016.2
20260504010203 60 8 0.0 0.0 0.00 0.00 0.00 46 1016.1
20260504005703 60 8 0.0 0.0 0.00 0.00 0.00 46 1016.1
20260504005202 60 8 0.0 0.0 0.00 0.00 0.00 45 1016.1
20260504004703 61 8 0.0 0.0 0.00 0.00 0.00 45 1015.9
20260504004203 62 8 0.0 0.0 0.00 0.00 0.00 44 1016.0
20260504003701 62 8 0.0 0.0 0.00 0.00 0.00 45 1016.0
20260504003458 62 8 0.0 0.0 0.00 0.00 0.00 43 1016.0
20260504003019 62 8 0.0 0.0 0.00 0.00 0.00 42 1015.9
20260504002201 63 8 0.0 0.0 0.00 0.00 0.00 41 1015.9
20260504001702 63 8 0.0 0.0 0.00 0.00 0.00 42 1015.9
20260504001202 64 8 0.0 0.0 0.00 0.00 0.00 42 1015.9
20260504000703 64 8 0.0 0.0 0.00 0.00 0.00 40 1015.8
20260504000159 64 8 0.0 0.0 0.00 0.00 0.00 40 1015.8
20260503235656 65 8 0.0 0.0 0.00 0.00 0.00 40 1015.7
20260503235156 65 8 0.0 0.0 0.00 0.00 0.00 39 1015.7
20260503234654 66 8 0.0 1.0 0.00 0.00 0.00 38 1015.8
20260503234507 66 8 0.0 1.0 0.00 0.00 0.00 37 1015.7
20260503233650 66 310 0.0 1.0 0.00 0.00 0.00 36 1015.8
20260503233442 67 329 0.0 2.0 0.00 0.00 0.00 38 1015.7
20260503232954 67 92 0.0 2.0 0.00 0.00 0.00 37 1015.7
20260503232149 68 90 0.0 2.0 0.00 0.00 0.00 39 1015.8
20260503231646 68 80 0.0 2.0 0.00 0.00 0.00 39 1015.8
20260503231139 68 114 0.0 2.0 0.00 0.00 0.00 36 1015.7
20260503230639 69 248 0.0 2.0 0.00 0.00 0.00 35 1015.9
20260503230138 69 140 0.0 1.0 0.00 0.00 0.00 35 1015.8
20260503225637 69 0 0.0 2.0 0.00 0.00 0.00 36 1015.9
20260503225137 69 326 1.0 2.0 0.00 0.00 0.00 33 1015.8
20260503224634 70 275 0.0 3.0 0.00 0.00 0.00 33 1015.9
20260503224135 70 271 2.0 3.0 0.00 0.00 0.00 33 1015.9
20260503223629 70 265 2.0 3.0 0.00 0.00 0.00 33 1015.9
20260503223129 70 214 0.0 3.0 0.00 0.00 0.00 34 1015.8
20260503222942 70 344 0.0 2.0 0.00 0.00 0.00 33 1016.0
20260503222129 71 313 1.0 3.0 0.00 0.00 0.00 34 1016.0
20260503221629 70 199 1.0 3.0 0.00 0.00 0.00 34 1016.0
20260503221421 71 157 1.0 3.0 0.00 0.00 0.00 34 1015.9
20260503220920 71 279 0.0 5.0 0.00 0.00 0.00 35 1016.0
20260503220131 71 276 2.0 5.0 0.00 0.00 0.00 32 1016.1
20260503215629 71 197 1.0 5.0 0.00 0.00 0.00 30 1016.0
20260503215132 72 3 1.0 3.0 0.00 0.00 0.00 32 1016.0
20260503214627 72 300 1.0 4.0 0.00 0.00 0.00 32 1016.1
20260503214127 72 298 1.0 4.0 0.00 0.00 0.00 35 1016.0
20260503213628 72 314 1.0 3.0 0.00 0.00 0.00 35 1016.1
20260503213126 72 264 1.0 3.0 0.00 0.00 0.00 34 1016.1
20260503212620 71 154 0.0 3.0 0.00 0.00 0.00 32 1016.1
20260503212122 72 298 2.0 3.0 0.00 0.00 0.00 34 1016.2
20260503211620 72 238 1.0 4.0 0.00 0.00 0.00 34 1016.2
20260503211115 71 255 2.0 4.0 0.00 0.00 0.00 32 1016.3
20260503210613 72 302 2.0 3.0 0.00 0.00 0.00 35 1016.3
20260503210203 73 0 1.0 3.0 0.00 0.00 0.00 35 1016.3
20260503210145 72 354 1.0 3.0 0.00 0.00 0.00 31 1016.3
20260503205111 72 265 1.0 3.0 0.00 0.00 0.00 34 1016.3
20260503204911 72 179 1.0 5.0 0.00 0.00 0.00 33 1016.4
20260503204110 71 161 2.0 5.0 0.00 0.00 0.00 34 1016.3
20260503203610 71 0 2.0 6.0 0.00 0.00 0.00 32 1016.4
20260503203110 72 347 3.0 6.0 0.00 0.00 0.00 34 1016.5
20260503202610 72 255 1.0 5.0 0.00 0.00 0.00 36 1016.6